EN

Hourly Weather Fareham

Today, 20 October, Tuesday

Time Temperature Precipitation Wind Pressure Humidity
00:00 +12°C° 0 mm 8 mps 751 mmHg 83%
01:00 +12°C° 1.1 mm 8 mps 750 mmHg 86%
02:00 +12°C° 1.1 mm 8 mps 750 mmHg 88%
03:00 +13°C° 1.1 mm 8 mps 749 mmHg 90%
04:00 +13°C° 0.2 mm 8 mps 749 mmHg 91%
05:00 +13°C° 0.2 mm 8 mps 749 mmHg 91%
06:00 +15°C° 0.2 mm 8 mps 749 mmHg 92%
07:00 +15°C° 0.1 mm 8 mps 749 mmHg 89%
08:00 +16°C° 0.1 mm 8 mps 749 mmHg 87%
09:00 +16°C° 0.1 mm 8 mps 749 mmHg 84%
10:00 +16°C° 0 mm 8 mps 749 mmHg 82%
11:00 +17°C° 0 mm 8 mps 750 mmHg 79%
12:00 +17°C° 0 mm 8 mps 750 mmHg 77%
13:00 +17°C° 0 mm 8 mps 749 mmHg 76%
14:00 +17°C° 0 mm 7 mps 749 mmHg 76%
15:00 +17°C° 0 mm 7 mps 749 mmHg 76%
16:00 +16°C° 0 mm 7 mps 749 mmHg 78%
17:00 +16°C° 0 mm 7 mps 749 mmHg 81%
18:00 +15°C° 0 mm 7 mps 749 mmHg 83%
19:00 +15°C° 0.4 mm 7 mps 749 mmHg 85%
20:00 +15°C° 0.4 mm 7 mps 749 mmHg 87%
21:00 +15°C° 0.4 mm 7 mps 748 mmHg 88%
22:00 +15°C° 1.1 mm 7 mps 748 mmHg 91%
23:00 +15°C° 1.1 mm 7 mps 747 mmHg 93%

Tomorrow, 21 October, Wednesday

Time Temperature Precipitation Wind Pressure Humidity
00:00 +14°C° 1.1 mm 7 mps 747 mmHg 95%
01:00 +14°C° 1.9 mm 7 mps 746 mmHg 95%
02:00 +14°C° 1.9 mm 7 mps 745 mmHg 96%
03:00 +14°C° 1.9 mm 7 mps 744 mmHg 97%
04:00 +14°C° 1.3 mm 6 mps 744 mmHg 96%
05:00 +14°C° 1.3 mm 6 mps 743 mmHg 95%
06:00 +14°C° 1.3 mm 6 mps 743 mmHg 94%
07:00 +14°C° 0.8 mm 7 mps 743 mmHg 94%
08:00 +15°C° 0.8 mm 8 mps 744 mmHg 93%
09:00 +15°C° 0.8 mm 9 mps 744 mmHg 93%
10:00 +15°C° 0.1 mm 9 mps 746 mmHg 91%
11:00 +15°C° 0.1 mm 8 mps 747 mmHg 88%
12:00 +15°C° 0.1 mm 7 mps 748 mmHg 86%
13:00 +15°C° 0.3 mm 8 mps 748 mmHg 86%
14:00 +15°C° 0.3 mm 8 mps 749 mmHg 87%
15:00 +16°C° 0.3 mm 8 mps 749 mmHg 87%
16:00 +15°C° 0 mm 7 mps 749 mmHg 89%
17:00 +14°C° 0 mm 6 mps 750 mmHg 90%
18:00 +14°C° 0 mm 5 mps 750 mmHg 92%
19:00 +13°C° 0.1 mm 4 mps 751 mmHg 92%
20:00 +13°C° 0.1 mm 4 mps 751 mmHg 92%
21:00 +13°C° 0.1 mm 3 mps 752 mmHg 93%
22:00 +13°C° 0.1 mm 4 mps 752 mmHg 92%
23:00 +13°C° 0.1 mm 4 mps 752 mmHg 92%

Day after tomorrow, 22 October, Thursday

Time Temperature Precipitation Wind Pressure Humidity
00:00 +12°C° 0.1 mm 5 mps 752 mmHg 92%
01:00 +12°C° 0 mm 5 mps 752 mmHg 91%
02:00 +12°C° 0 mm 5 mps 752 mmHg 90%
03:00 +12°C° 0 mm 5 mps 752 mmHg 90%
04:00 +11°C° 0 mm 6 mps 752 mmHg 89%
05:00 +11°C° 0 mm 6 mps 752 mmHg 88%
06:00 +11°C° 0 mm 7 mps 752 mmHg 88%
07:00 +12°C° 0 mm 7 mps 752 mmHg 85%
08:00 +13°C° 0 mm 8 mps 752 mmHg 83%
09:00 +13°C° 0 mm 9 mps 752 mmHg 80%
10:00 +15°C° 0.1 mm 9 mps 753 mmHg 78%
11:00 +15°C° 0.1 mm 9 mps 753 mmHg 77%
12:00 +14°C° 0.1 mm 10 mps 753 mmHg 75%
13:00 +14°C° 0.2 mm 10 mps 753 mmHg 77%
14:00 +15°C° 0.2 mm 9 mps 753 mmHg 78%
15:00 +15°C° 0.2 mm 9 mps 753 mmHg 79%
16:00 +13°C° 0.1 mm 8 mps 753 mmHg 83%
17:00 +12°C° 0.1 mm 7 mps 754 mmHg 86%
18:00 +11°C° 0.1 mm 6 mps 754 mmHg 89%
19:00 +12°C° 0.1 mm 5 mps 754 mmHg 90%
20:00 +10°C° 0.1 mm 5 mps 754 mmHg 91%
21:00 +11°C° 0.1 mm 4 mps 755 mmHg 92%
22:00 +10°C° 0 mm 4 mps 755 mmHg 91%
23:00 +8°C° 0 mm 4 mps 755 mmHg 90%

23 October, Friday

Time Temperature Precipitation Wind Pressure Humidity
00:00 +8°C° 0 mm 4 mps 755 mmHg 89%
01:00 +7°C° 0 mm 4 mps 756 mmHg 89%
02:00 +7°C° 0 mm 5 mps 756 mmHg 89%
03:00 +6°C° 0 mm 5 mps 756 mmHg 89%
04:00 +6°C° 0 mm 5 mps 756 mmHg 86%
05:00 +6°C° 0 mm 5 mps 757 mmHg 84%
06:00 +6°C° 0 mm 5 mps 757 mmHg 81%
07:00 +8°C° 0 mm 6 mps 757 mmHg 80%
08:00 +9°C° 0 mm 6 mps 757 mmHg 78%
09:00 +10°C° 0 mm 7 mps 757 mmHg 76%
10:00 +11°C° 0 mm 8 mps 757 mmHg 76%
11:00 +11°C° 0 mm 9 mps 757 mmHg 76%
12:00 +12°C° 0 mm 10 mps 757 mmHg 76%
13:00 +12°C° 0.7 mm 9 mps 757 mmHg 80%
14:00 +11°C° 0.7 mm 8 mps 757 mmHg 83%
15:00 +11°C° 0.7 mm 8 mps 757 mmHg 87%
16:00 +10°C° 0.1 mm 7 mps 758 mmHg 85%
17:00 +9°C° 0.1 mm 6 mps 758 mmHg 84%
18:00 +9°C° 0.1 mm 6 mps 759 mmHg 83%
19:00 +8°C° 0 mm 5 mps 759 mmHg 84%
20:00 +8°C° 0 mm 5 mps 760 mmHg 84%
21:00 +7°C° 0 mm 4 mps 760 mmHg 85%
22:00 +7°C° 0 mm 4 mps 761 mmHg 84%
23:00 +7°C° 0 mm 4 mps 761 mmHg 83%

24 October, Saturday

Time Temperature Precipitation Wind Pressure Humidity
00:00 +7°C° 0 mm 4 mps 761 mmHg 82%
01:00 +7°C° 0 mm 4 mps 761 mmHg 82%
02:00 +7°C° 0 mm 4 mps 761 mmHg 82%
03:00 +7°C° 0 mm 4 mps 761 mmHg 82%
04:00 +7°C° 0 mm 4 mps 761 mmHg 83%
05:00 +7°C° 0 mm 4 mps 760 mmHg 83%
06:00 +8°C° 0 mm 5 mps 760 mmHg 84%
07:00 +9°C° 0 mm 5 mps 760 mmHg 82%
08:00 +10°C° 0 mm 6 mps 760 mmHg 81%
09:00 +11°C° 0 mm 6 mps 760 mmHg 79%
10:00 +12°C° 0 mm 7 mps 760 mmHg 79%
11:00 +12°C° 0 mm 7 mps 759 mmHg 79%
12:00 +13°C° 0 mm 8 mps 759 mmHg 79%
13:00 +13°C° 0.1 mm 8 mps 758 mmHg 81%
14:00 +13°C° 0.1 mm 8 mps 758 mmHg 82%
15:00 +13°C° 0.1 mm 8 mps 757 mmHg 84%
16:00 +13°C° 0.1 mm 8 mps 757 mmHg 85%
17:00 +13°C° 0.1 mm 8 mps 756 mmHg 86%
18:00 +13°C° 0.1 mm 9 mps 756 mmHg 87%
19:00 +13°C° 0.1 mm 9 mps 756 mmHg 87%
20:00 +13°C° 0.1 mm 10 mps 755 mmHg 86%
21:00 +13°C° 0.1 mm 11 mps 755 mmHg 85%
22:00 +13°C° 0.1 mm 11 mps 755 mmHg 85%
23:00 +13°C° 0.1 mm 11 mps 754 mmHg 84%

25 October, Sunday

Time Temperature Precipitation Wind Pressure Humidity
00:00 +13°C° 0.1 mm 11 mps 753 mmHg 84%
01:00 +13°C° 0.1 mm 11 mps 753 mmHg 84%
02:00 +13°C° 0.1 mm 11 mps 752 mmHg 83%
03:00 +13°C° 0.1 mm 12 mps 751 mmHg 83%
04:00 +13°C° 0.1 mm 12 mps 751 mmHg 83%
05:00 +13°C° 0.1 mm 12 mps 751 mmHg 84%
06:00 +13°C° 0.1 mm 12 mps 751 mmHg 84%
07:00 +12°C° 0.5 mm 11 mps 751 mmHg 86%
08:00 +12°C° 0.5 mm 10 mps 751 mmHg 87%
09:00 +12°C° 0.5 mm 9 mps 751 mmHg 88%
10:00 +11°C° 0.6 mm 7 mps 751 mmHg 88%
11:00 +11°C° 0.6 mm 6 mps 751 mmHg 87%
12:00 +12°C° 0.6 mm 5 mps 751 mmHg 87%
13:00 +12°C° 0.9 mm 4 mps 751 mmHg 85%
14:00 +12°C° 0.9 mm 4 mps 751 mmHg 84%
15:00 +11°C° 0.9 mm 4 mps 751 mmHg 83%
16:00 +11°C° 0.1 mm 4 mps 751 mmHg 84%
17:00 +11°C° 0.1 mm 4 mps 751 mmHg 84%
18:00 +11°C° 0.1 mm 4 mps 751 mmHg 85%
19:00 +10°C° 0 mm 4 mps 752 mmHg 85%
20:00 +10°C° 0 mm 4 mps 752 mmHg 85%
21:00 +10°C° 0 mm 4 mps 752 mmHg 86%
22:00 +8°C° 0.1 mm 4 mps 752 mmHg 86%
23:00 +8°C° 0.1 mm 4 mps 752 mmHg 86%

26 October, Monday

Time Temperature Precipitation Wind Pressure Humidity
00:00 +7°C° 0.1 mm 4 mps 752 mmHg 86%
01:00 +7°C° 0 mm 4 mps 752 mmHg 87%
02:00 +7°C° 0 mm 4 mps 752 mmHg 87%
03:00 +7°C° 0 mm 5 mps 752 mmHg 87%
04:00 +7°C° 0 mm 5 mps 752 mmHg 88%
05:00 +6°C° 0 mm 4 mps 753 mmHg 88%
06:00 +6°C° 0 mm 4 mps 753 mmHg 89%
07:00 +7°C° 0 mm 5 mps 753 mmHg 85%
08:00 +8°C° 0 mm 5 mps 753 mmHg 82%
09:00 +9°C° 0 mm 6 mps 753 mmHg 79%
10:00 +10°C° 0.1 mm 7 mps 753 mmHg 75%
11:00 +11°C° 0.1 mm 8 mps 753 mmHg 72%
12:00 +12°C° 0.1 mm 9 mps 753 mmHg 69%
13:00 +11°C° 0.1 mm 9 mps 752 mmHg 72%
14:00 +11°C° 0.1 mm 10 mps 752 mmHg 75%
15:00 +11°C° 0.1 mm 11 mps 751 mmHg 78%
16:00 +11°C° 1.5 mm 10 mps 751 mmHg 81%
17:00 +11°C° 1.5 mm 9 mps 750 mmHg 84%
18:00 +11°C° 1.5 mm 8 mps 750 mmHg 87%
19:00 +10°C° 0.6 mm 8 mps 750 mmHg 86%
20:00 +10°C° 0.6 mm 8 mps 750 mmHg 84%
21:00 +10°C° 0.6 mm 8 mps 751 mmHg 83%
22:00 +9°C° 0 mm 8 mps 751 mmHg 83%
23:00 +9°C° 0 mm 8 mps 751 mmHg 82%
Show more